Provo, UT

7:30 PM MST on November 16, 2019 (GMT -0700)
Provo Municipal

Weather History for KPVU - September, 2019

Change the Weather History Date:

Thursday, September 26, 2019

  Actual Average Record
Temperature  
Mean Temperature 64 °F -  
Max Temperature 82 °F 71 °F 89 °F (2015)
Min Temperature 46 °F 43 °F 35 °F (2007)
Degree Days  
Heating Degree Days 1    
Growing Degree Days 14 (Base 50)    
Moisture  
Dew Point 44 °F    
Average Humidity 55    
Maximum Humidity 86    
Minimum Humidity 23    
Precipitation  
Precipitation 0.00 in - - ()
Sea Level Pressure  
Sea Level Pressure 29.89 in    
Wind  
Wind Speed 3 mph (SE)    
Max Wind Speed 9 mph    
Max Gust Speed -    
Visibility 10 miles    
Events      
Averages and records for this station are not official NWS values.
T = Trace of Precipitation, MM = Missing Value Source: NWS Daily Summary

Daily Weather History Graph

Daily Weather History Graph

Search for Another Location

Airport or City:

Astronomy

Sep. 26, 2019 Rise Set
Actual Time 7:18 AM MDT 7:17 PM MDT
Civil Twilight 6:51 AM MDT 7:44 PM MDT
Nautical Twilight 6:19 AM MDT 8:16 PM MDT
Astronomical Twilight 5:47 AM MDT 8:48 PM MDT
Moon 4:29 AM MDT (9/26) 6:33 PM MDT (9/26)
Length of Visible Light 12h 53m
Length of Day
11h 59m
Waning Crescent, 6% of the Moon is Illuminated
Sep 26
Waning Crescent
Sep 28
New
Oct 5
First Quarter
Oct 13
Full
Oct 21
Last Quarter

Hourly Weather History & Observations

Time (MDT) Temp. Dew Point Humidity Pressure Visibility Wind Dir Wind Speed Gust Speed Precip Events Conditions
12:56 AM 55.9 °F 46.9 °F 72% 30.01 in 10.0 mi SE 3.5 mph - N/A   Clear
1:56 AM 53.1 °F 46.9 °F 80% 30.01 in 10.0 mi Calm Calm - N/A   Clear
2:56 AM 52.0 °F 45.0 °F 77% 30.01 in 10.0 mi ESE 3.5 mph - N/A   Clear
3:56 AM 50.0 °F 44.1 °F 80% 30.00 in 10.0 mi Calm Calm - N/A   Clear
4:56 AM 48.0 °F 44.1 °F 86% 30.00 in 10.0 mi Calm Calm - N/A   Clear
6:56 AM 46.9 °F 42.1 °F 83% 30.01 in 10.0 mi ESE 4.6 mph - N/A   Clear
7:56 AM 48.9 °F 42.1 °F 77% 30.02 in 10.0 mi East 3.5 mph - N/A   Clear
8:56 AM 55.0 °F 44.1 °F 67% 30.00 in 8.0 mi Calm Calm - N/A   Clear
9:56 AM 61.0 °F 45.0 °F 56% 29.98 in 10.0 mi South 5.8 mph - N/A   Clear
10:56 AM 64.9 °F 44.1 °F 47% 29.97 in 10.0 mi SSE 6.9 mph - N/A   Clear
11:56 AM 66.0 °F 48.9 °F 54% 29.95 in 10.0 mi Variable 4.6 mph - N/A   Clear
12:56 PM 73.0 °F 43.0 °F 34% 29.91 in 10.0 mi Variable 4.6 mph - N/A   Clear
1:56 PM 75.9 °F 39.9 °F 27% 29.87 in 10.0 mi Variable 3.5 mph - N/A   Clear
2:56 PM 79.0 °F 39.0 °F 24% 29.83 in 10.0 mi Calm Calm - N/A   Clear
3:56 PM 81.0 °F 39.9 °F 23% 29.79 in 10.0 mi Variable 4.6 mph - N/A   Clear
4:56 PM 82.0 °F 41.0 °F 23% 29.77 in 10.0 mi SE 9.2 mph - N/A   Clear
5:56 PM 81.0 °F 42.1 °F 25% 29.75 in 10.0 mi SSE 6.9 mph - N/A   Partly Cloudy
6:56 PM 78.1 °F 42.1 °F 28% 29.75 in 10.0 mi SE 3.5 mph - N/A   Partly Cloudy
7:56 PM 66.9 °F 46.9 °F 49% 29.77 in 10.0 mi Calm Calm - N/A   Partly Cloudy
8:56 PM 68.0 °F 53.1 °F 59% 29.75 in 10.0 mi Calm Calm - N/A   Clear
9:56 PM 60.1 °F 46.0 °F 60% 29.75 in 10.0 mi Calm Calm - N/A   Clear
10:56 PM 57.9 °F 48.0 °F 70% 29.75 in 10.0 mi SE 4.6 mph - N/A   Clear